When you browse on this site, cookies collect data to enhance your experience and personalize the content and advertising you see.
Visit our Privacy Policy to learn more. By continuing to use the site, you agree to this use of cookies and data.
  • In Romania
  • List of Countries
  • For 7 days
  • Water Temperature
  • Satellite Maps
  • Weather Map
  • Weather Widgets
  • user-avatar
    Login

    Hourly Weather Turksad

    Today, 17 November, Saturday

    Time Temperature Precipitation Wind Pressure Humidity
    00:00 +2°C° 0.9 mm 8 mps 766 mmHg 77%
    01:00 +2°C° 0.4 mm 8 mps 766 mmHg 78%
    02:00 +2°C° 0.4 mm 8 mps 766 mmHg 78%
    03:00 +3°C° 0 mm 5 mps 766 mmHg 77%
    04:00 +3°C° 0 mm 6 mps 766 mmHg 77%
    05:00 +3°C° 0 mm 7 mps 766 mmHg 76%
    06:00 +3°C° 0 mm 7 mps 766 mmHg 75%
    07:00 +3°C° 0.2 mm 7 mps 766 mmHg 76%
    08:00 +3°C° 0.2 mm 7 mps 766 mmHg 76%
    09:00 +3°C° 0.2 mm 7 mps 766 mmHg 77%
    10:00 +3°C° 0.8 mm 7 mps 766 mmHg 77%
    11:00 +4°C° 0.8 mm 6 mps 766 mmHg 77%
    12:00 +4°C° 0.8 mm 6 mps 766 mmHg 78%
    13:00 +4°C° 1.9 mm 6 mps 766 mmHg 79%
    14:00 +3°C° 1.9 mm 5 mps 766 mmHg 81%
    15:00 +3°C° 1.9 mm 5 mps 766 mmHg 83%
    16:00 +3°C° 0.6 mm 5 mps 767 mmHg 83%
    17:00 +4°C° 0.6 mm 4 mps 767 mmHg 84%
    18:00 +4°C° 0.6 mm 4 mps 767 mmHg 85%
    19:00 +4°C° 0.2 mm 3 mps 767 mmHg 86%
    20:00 +4°C° 0.2 mm 3 mps 767 mmHg 86%
    21:00 +4°C° 0.2 mm 3 mps 767 mmHg 87%
    22:00 +4°C° 0.2 mm 3 mps 766 mmHg 88%
    23:00 +4°C° 0.2 mm 3 mps 766 mmHg 88%

    Tomorrow, 18 November, Sunday

    Time Temperature Precipitation Wind Pressure Humidity
    00:00 +4°C° 0.2 mm 3 mps 766 mmHg 89%
    01:00 +5°C° 0.1 mm 2 mps 766 mmHg 89%
    02:00 +5°C° 0.1 mm 2 mps 766 mmHg 89%
    03:00 +5°C° 0.1 mm 2 mps 766 mmHg 89%
    04:00 +4°C° 0.2 mm 2 mps 766 mmHg 89%
    05:00 +4°C° 0.2 mm 2 mps 766 mmHg 88%
    06:00 +4°C° 0.2 mm 2 mps 766 mmHg 88%
    07:00 +4°C° 0.1 mm 2 mps 766 mmHg 86%
    08:00 +4°C° 0.1 mm 2 mps 766 mmHg 84%
    09:00 +5°C° 0.1 mm 2 mps 765 mmHg 81%
    10:00 +5°C° 0 mm 2 mps 765 mmHg 78%
    11:00 +7°C° 0 mm 1 mps 765 mmHg 75%
    12:00 +7°C° 0 mm 1 mps 765 mmHg 72%
    13:00 +7°C° 0 mm 1 mps 765 mmHg 70%
    14:00 +8°C° 0 mm 1 mps 765 mmHg 69%
    15:00 +8°C° 0 mm 1 mps 765 mmHg 67%
    16:00 +7°C° 0 mm 1 mps 765 mmHg 69%
    17:00 +7°C° 0 mm 1 mps 765 mmHg 72%
    18:00 +7°C° 0 mm 1 mps 765 mmHg 74%
    19:00 +6°C° 0 mm 1 mps 765 mmHg 76%
    20:00 +6°C° 0 mm 1 mps 765 mmHg 77%
    21:00 +5°C° 0 mm 1 mps 765 mmHg 79%
    22:00 +6°C° 0 mm 1 mps 765 mmHg 79%
    23:00 +6°C° 0 mm 1 mps 765 mmHg 79%

    Day after tomorrow, 19 November, Monday

    Time Temperature Precipitation Wind Pressure Humidity
    00:00 +6°C° 0 mm 1 mps 765 mmHg 79%
    01:00 +6°C° 0 mm 1 mps 765 mmHg 80%
    02:00 +5°C° 0 mm 1 mps 765 mmHg 82%
    03:00 +5°C° 0 mm 1 mps 765 mmHg 83%
    04:00 +5°C° 0 mm 1 mps 766 mmHg 85%
    05:00 +5°C° 0 mm 1 mps 766 mmHg 87%
    06:00 +4°C° 0 mm 1 mps 766 mmHg 89%
    07:00 +5°C° 0 mm 1 mps 766 mmHg 87%
    08:00 +5°C° 0 mm 2 mps 766 mmHg 85%
    09:00 +5°C° 0 mm 2 mps 767 mmHg 83%
    10:00 +5°C° 0 mm 3 mps 767 mmHg 79%
    11:00 +7°C° 0 mm 3 mps 767 mmHg 75%
    12:00 +7°C° 0 mm 4 mps 766 mmHg 71%
    13:00 +7°C° 0 mm 4 mps 766 mmHg 70%
    14:00 +7°C° 0 mm 5 mps 766 mmHg 70%
    15:00 +7°C° 0 mm 5 mps 766 mmHg 69%
    16:00 +7°C° 0 mm 5 mps 766 mmHg 72%
    17:00 +6°C° 0 mm 5 mps 766 mmHg 74%
    18:00 +5°C° 0 mm 5 mps 766 mmHg 77%
    19:00 +5°C° 0 mm 5 mps 766 mmHg 79%
    20:00 +3°C° 0 mm 5 mps 766 mmHg 81%
    21:00 +3°C° 0 mm 6 mps 766 mmHg 83%
    22:00 +3°C° 0 mm 5 mps 766 mmHg 84%
    23:00 +2°C° 0 mm 5 mps 766 mmHg 86%

    20 November, Tuesday

    Time Temperature Precipitation Wind Pressure Humidity
    00:00 +2°C° 0 mm 5 mps 766 mmHg 87%
    01:00 +2°C° 0 mm 5 mps 766 mmHg 87%
    02:00 +2°C° 0 mm 5 mps 766 mmHg 86%
    03:00 +3°C° 0 mm 5 mps 766 mmHg 86%
    04:00 +3°C° 0 mm 5 mps 766 mmHg 85%
    05:00 +3°C° 0 mm 5 mps 766 mmHg 84%
    06:00 +3°C° 0 mm 5 mps 766 mmHg 83%
    07:00 +5°C° 0 mm 5 mps 766 mmHg 81%
    08:00 +4°C° 0 mm 6 mps 766 mmHg 79%
    09:00 +5°C° 0 mm 6 mps 766 mmHg 77%
    10:00 +7°C° 0 mm 6 mps 766 mmHg 74%
    11:00 +8°C° 0 mm 6 mps 766 mmHg 72%
    12:00 +8°C° 0 mm 6 mps 765 mmHg 69%
    13:00 +9°C° 0 mm 6 mps 765 mmHg 69%
    14:00 +9°C° 0 mm 5 mps 765 mmHg 68%
    15:00 +9°C° 0 mm 5 mps 764 mmHg 68%
    16:00 +8°C° 0 mm 5 mps 764 mmHg 72%
    17:00 +8°C° 0 mm 4 mps 764 mmHg 76%
    18:00 +7°C° 0 mm 4 mps 764 mmHg 80%
    19:00 +7°C° 0 mm 4 mps 764 mmHg 81%
    20:00 +7°C° 0 mm 4 mps 763 mmHg 82%
    21:00 +7°C° 0 mm 4 mps 763 mmHg 83%
    22:00 +7°C° 0 mm 4 mps 762 mmHg 83%
    23:00 +8°C° 0 mm 3 mps 762 mmHg 83%

    21 November, Wednesday

    Time Temperature Precipitation Wind Pressure Humidity
    00:00 +8°C° 0 mm 3 mps 762 mmHg 83%
    01:00 +8°C° 0 mm 2 mps 762 mmHg 83%
    02:00 +8°C° 0 mm 2 mps 761 mmHg 83%
    03:00 +8°C° 0 mm 2 mps 761 mmHg 82%
    04:00 +8°C° 0 mm 2 mps 761 mmHg 83%
    05:00 +8°C° 0 mm 2 mps 761 mmHg 84%
    06:00 +8°C° 0 mm 2 mps 760 mmHg 84%
    07:00 +9°C° 0.2 mm 2 mps 760 mmHg 84%
    08:00 +9°C° 0.2 mm 3 mps 760 mmHg 84%
    09:00 +9°C° 0.2 mm 3 mps 760 mmHg 84%
    10:00 +9°C° 0.9 mm 3 mps 760 mmHg 85%
    11:00 +9°C° 0.9 mm 3 mps 759 mmHg 86%
    12:00 +8°C° 0.9 mm 4 mps 759 mmHg 86%
    13:00 +8°C° 0.5 mm 4 mps 759 mmHg 85%
    14:00 +8°C° 0.5 mm 4 mps 758 mmHg 84%
    15:00 +8°C° 0.5 mm 4 mps 758 mmHg 82%
    16:00 +8°C° 0.5 mm 4 mps 758 mmHg 83%
    17:00 +7°C° 0.5 mm 4 mps 758 mmHg 84%
    18:00 +7°C° 0.5 mm 4 mps 758 mmHg 85%
    19:00 +7°C° 0.3 mm 4 mps 758 mmHg 85%
    20:00 +6°C° 0.3 mm 4 mps 758 mmHg 84%
    21:00 +6°C° 0.3 mm 4 mps 758 mmHg 83%
    22:00 +6°C° 0.3 mm 5 mps 758 mmHg 82%
    23:00 +5°C° 0.3 mm 5 mps 758 mmHg 81%

    22 November, Thursday

    Time Temperature Precipitation Wind Pressure Humidity
    00:00 +5°C° 0.3 mm 5 mps 757 mmHg 80%
    01:00 +3°C° 0.2 mm 5 mps 758 mmHg 79%
    02:00 +3°C° 0.2 mm 5 mps 758 mmHg 77%
    03:00 +3°C° 0.2 mm 5 mps 758 mmHg 76%
    04:00 +2°C° 0.3 mm 5 mps 758 mmHg 76%
    05:00 +2°C° 0.3 mm 5 mps 758 mmHg 77%
    06:00 +2°C° 0.3 mm 5 mps 758 mmHg 77%
    07:00 +2°C° 0.1 mm 5 mps 759 mmHg 76%
    08:00 +1°C° 0.1 mm 5 mps 759 mmHg 76%
    09:00 +1°C° 0.1 mm 5 mps 759 mmHg 75%
    10:00 +3°C° 0 mm 4 mps 759 mmHg 73%
    11:00 +3°C° 0 mm 4 mps 759 mmHg 70%
    12:00 +3°C° 0 mm 4 mps 759 mmHg 68%
    13:00 +3°C° 0 mm 4 mps 759 mmHg 68%
    14:00 +3°C° 0 mm 4 mps 759 mmHg 68%
    15:00 +3°C° 0 mm 4 mps 760 mmHg 68%
    16:00 +3°C° 0 mm 4 mps 760 mmHg 69%
    17:00 +1°C° 0 mm 4 mps 760 mmHg 70%
    18:00 +1°C° 0 mm 4 mps 761 mmHg 70%
    19:00 +1°C° 0 mm 4 mps 761 mmHg 70%
    20:00 +1°C° 0 mm 4 mps 761 mmHg 70%
    21:00 0°C° 0 mm 4 mps 761 mmHg 69%
    22:00 0°C° 0 mm 4 mps 761 mmHg 68%
    23:00 0°C° 0 mm 4 mps 762 mmHg 68%
    Show more